When you browse on this site, cookies collect data to enhance your experience and personalize the content and advertising you see.
Visit our Privacy Policy to learn more. By continuing to use the site, you agree to this use of cookies and data.

Météo par heure à Zelenaya Gorka

Ce jour, 7 Juillet, Mardi

Heure Température Précipitation Vent Pression Humidité
00:00 +20°C° 0 mm 1 m/s 739 mmHg 87%
01:00 +20°C° 0 mm 1 m/s 738 mmHg 89%
02:00 +19°C° 0 mm 2 m/s 738 mmHg 93%
03:00 +19°C° 0 mm 2 m/s 738 mmHg 93%
04:00 +20°C° 0 mm 2 m/s 738 mmHg 92%
05:00 +20°C° 0 mm 2 m/s 737 mmHg 92%
06:00 +23°C° 0.1 mm 2 m/s 737 mmHg 89%
07:00 +25°C° 0.1 mm 3 m/s 737 mmHg 86%
08:00 +26°C° 0 mm 3 m/s 737 mmHg 82%
09:00 +28°C° 1 mm 3 m/s 737 mmHg 75%
10:00 +29°C° 1 mm 3 m/s 737 mmHg 68%
11:00 +31°C° 1 mm 3 m/s 737 mmHg 61%
12:00 +31°C° 0 mm 3 m/s 736 mmHg 60%
13:00 +32°C° 0 mm 4 m/s 736 mmHg 60%
14:00 +33°C° 0 mm 4 m/s 736 mmHg 59%
15:00 +32°C° 0.3 mm 4 m/s 735 mmHg 65%
16:00 +30°C° 0.3 mm 4 m/s 735 mmHg 71%
17:00 +29°C° 0.3 mm 4 m/s 734 mmHg 77%
18:00 +28°C° 0.2 mm 4 m/s 734 mmHg 81%
19:00 +26°C° 0.2 mm 3 m/s 734 mmHg 84%
20:00 +25°C° 0.2 mm 3 m/s 734 mmHg 88%
21:00 +24°C° 0.9 mm 3 m/s 734 mmHg 89%
22:00 +21°C° 0.9 mm 2 m/s 734 mmHg 91%
23:00 +19°C° 0.9 mm 2 m/s 733 mmHg 92%

Demain, 8 Juillet, Mercredi

Heure Température Précipitation Vent Pression Humidité
00:00 +19°C° 0.2 mm 2 m/s 733 mmHg 91%
01:00 +19°C° 0.2 mm 2 m/s 734 mmHg 91%
02:00 +19°C° 0.2 mm 2 m/s 734 mmHg 90%
03:00 +19°C° 0.1 mm 2 m/s 733 mmHg 90%
04:00 +19°C° 0.1 mm 2 m/s 733 mmHg 89%
05:00 +20°C° 0.1 mm 2 m/s 733 mmHg 89%
06:00 +20°C° 0.2 mm 2 m/s 733 mmHg 88%
07:00 +21°C° 0.2 mm 2 m/s 733 mmHg 87%
08:00 +23°C° 0.2 mm 2 m/s 733 mmHg 86%
09:00 +23°C° 0 mm 2 m/s 734 mmHg 85%
10:00 +24°C° 0 mm 2 m/s 734 mmHg 84%
11:00 +24°C° 0 mm 2 m/s 735 mmHg 83%
12:00 +22°C° 0.3 mm 3 m/s 735 mmHg 85%
13:00 +21°C° 0.3 mm 4 m/s 735 mmHg 88%
14:00 +20°C° 0.3 mm 5 m/s 735 mmHg 91%
15:00 +20°C° 1 mm 5 m/s 736 mmHg 91%
16:00 +19°C° 1 mm 4 m/s 736 mmHg 92%
17:00 +19°C° 1 mm 4 m/s 736 mmHg 92%
18:00 +18°C° 0 mm 4 m/s 737 mmHg 92%
19:00 +17°C° 0 mm 4 m/s 737 mmHg 92%
20:00 +15°C° 0 mm 4 m/s 737 mmHg 92%
21:00 +15°C° 0 mm 4 m/s 738 mmHg 92%
22:00 +14°C° 0 mm 4 m/s 738 mmHg 91%
23:00 +14°C° 0 mm 4 m/s 738 mmHg 91%

Après-demain, 9 Juillet, Jeudi

Heure Température Précipitation Vent Pression Humidité
00:00 +13°C° 0 mm 4 m/s 738 mmHg 90%
01:00 +13°C° 0 mm 3 m/s 739 mmHg 90%
02:00 +13°C° 0 mm 3 m/s 739 mmHg 90%
03:00 +13°C° 0 mm 3 m/s 739 mmHg 90%
04:00 +13°C° 0 mm 4 m/s 739 mmHg 90%
05:00 +13°C° 0 mm 4 m/s 739 mmHg 90%
06:00 +14°C° 0 mm 4 m/s 739 mmHg 85%
07:00 +15°C° 0 mm 4 m/s 740 mmHg 80%
08:00 +18°C° 0 mm 4 m/s 740 mmHg 75%
09:00 +19°C° 0 mm 4 m/s 740 mmHg 72%
10:00 +20°C° 0 mm 4 m/s 740 mmHg 70%
11:00 +21°C° 0 mm 4 m/s 741 mmHg 67%
12:00 +21°C° 0.1 mm 4 m/s 741 mmHg 64%
13:00 +21°C° 0.1 mm 4 m/s 741 mmHg 62%
14:00 +22°C° 0.1 mm 4 m/s 741 mmHg 59%
15:00 +21°C° 0.1 mm 4 m/s 741 mmHg 63%
16:00 +20°C° 0.1 mm 4 m/s 741 mmHg 68%
17:00 +20°C° 0.1 mm 3 m/s 741 mmHg 72%
18:00 +18°C° 0 mm 3 m/s 742 mmHg 77%
19:00 +17°C° 0 mm 3 m/s 742 mmHg 82%
20:00 +15°C° 0 mm 2 m/s 742 mmHg 87%
21:00 +14°C° 0 mm 2 m/s 743 mmHg 89%
22:00 +14°C° 0 mm 2 m/s 743 mmHg 91%
23:00 +13°C° 0 mm 2 m/s 743 mmHg 93%

10 Juillet, Vendredi

Heure Température Précipitation Vent Pression Humidité
00:00 +13°C° 0 mm 2 m/s 744 mmHg 94%
01:00 +12°C° 0 mm 2 m/s 744 mmHg 94%
02:00 +12°C° 0 mm 2 m/s 744 mmHg 94%
03:00 +12°C° 0 mm 2 m/s 744 mmHg 93%
04:00 +12°C° 0 mm 2 m/s 745 mmHg 92%
05:00 +13°C° 0 mm 2 m/s 745 mmHg 91%
06:00 +14°C° 0 mm 2 m/s 745 mmHg 85%
07:00 +16°C° 0 mm 2 m/s 746 mmHg 80%
08:00 +18°C° 0 mm 2 m/s 746 mmHg 74%
09:00 +19°C° 0 mm 2 m/s 746 mmHg 68%
10:00 +20°C° 0 mm 3 m/s 746 mmHg 63%
11:00 +21°C° 0 mm 3 m/s 746 mmHg 58%
12:00 +21°C° 0 mm 2 m/s 747 mmHg 56%
13:00 +23°C° 0 mm 2 m/s 747 mmHg 55%
14:00 +23°C° 0 mm 2 m/s 747 mmHg 53%
15:00 +23°C° 0 mm 2 m/s 747 mmHg 55%
16:00 +23°C° 0 mm 2 m/s 747 mmHg 58%
17:00 +23°C° 0 mm 1 m/s 747 mmHg 60%
18:00 +21°C° 0 mm 1 m/s 747 mmHg 66%
19:00 +19°C° 0 mm 1 m/s 747 mmHg 71%
20:00 +16°C° 0 mm 1 m/s 747 mmHg 77%
21:00 +15°C° 0 mm 1 m/s 747 mmHg 79%
22:00 +15°C° 0 mm 1 m/s 747 mmHg 81%
23:00 +14°C° 0 mm 1 m/s 748 mmHg 83%

11 Juillet, Samedi

Heure Température Précipitation Vent Pression Humidité
00:00 +14°C° 0 mm 2 m/s 747 mmHg 85%
01:00 +13°C° 0 mm 2 m/s 747 mmHg 86%
02:00 +13°C° 0 mm 2 m/s 747 mmHg 87%
03:00 +14°C° 0 mm 2 m/s 747 mmHg 87%
04:00 +14°C° 0 mm 2 m/s 748 mmHg 87%
05:00 +15°C° 0 mm 2 m/s 748 mmHg 86%
06:00 +16°C° 0 mm 3 m/s 748 mmHg 82%
07:00 +18°C° 0 mm 3 m/s 748 mmHg 77%
08:00 +20°C° 0 mm 4 m/s 747 mmHg 73%
09:00 +21°C° 0 mm 4 m/s 747 mmHg 69%
10:00 +22°C° 0 mm 4 m/s 747 mmHg 66%
11:00 +23°C° 0 mm 5 m/s 747 mmHg 63%
12:00 +23°C° 0 mm 5 m/s 747 mmHg 63%
13:00 +25°C° 0 mm 5 m/s 747 mmHg 63%
14:00 +25°C° 0 mm 5 m/s 746 mmHg 63%
15:00 +25°C° 0 mm 4 m/s 746 mmHg 66%
16:00 +25°C° 0 mm 4 m/s 746 mmHg 70%
17:00 +24°C° 0 mm 3 m/s 746 mmHg 73%
18:00 +22°C° 0 mm 3 m/s 745 mmHg 78%
19:00 +21°C° 0 mm 3 m/s 745 mmHg 83%
20:00 +19°C° 0 mm 3 m/s 745 mmHg 88%
21:00 +18°C° 0 mm 3 m/s 745 mmHg 89%
22:00 +18°C° 0 mm 3 m/s 745 mmHg 90%
23:00 +17°C° 0 mm 3 m/s 745 mmHg 91%

12 Juillet, Dimanche

Heure Température Précipitation Vent Pression Humidité
00:00 +17°C° 0 mm 3 m/s 745 mmHg 91%
01:00 +16°C° 0 mm 3 m/s 745 mmHg 91%
02:00 +16°C° 0 mm 3 m/s 745 mmHg 92%
03:00 +16°C° 0 mm 2 m/s 745 mmHg 91%
04:00 +17°C° 0 mm 2 m/s 745 mmHg 90%
05:00 +17°C° 0 mm 2 m/s 745 mmHg 89%
06:00 +18°C° 0 mm 2 m/s 745 mmHg 87%
07:00 +19°C° 0 mm 2 m/s 745 mmHg 85%
08:00 +21°C° 0 mm 1 m/s 745 mmHg 83%
09:00 +20°C° 0.2 mm 2 m/s 745 mmHg 83%
10:00 +21°C° 0.2 mm 2 m/s 745 mmHg 83%
11:00 +21°C° 0.2 mm 2 m/s 745 mmHg 83%
12:00 +23°C° 0.9 mm 2 m/s 745 mmHg 82%
13:00 +23°C° 0.9 mm 2 m/s 744 mmHg 82%
14:00 +24°C° 0.9 mm 2 m/s 744 mmHg 82%
15:00 +24°C° 1.4 mm 2 m/s 744 mmHg 83%
16:00 +23°C° 1.4 mm 2 m/s 744 mmHg 84%
17:00 +23°C° 1.4 mm 2 m/s 743 mmHg 86%
18:00 +21°C° 0.7 mm 2 m/s 743 mmHg 88%
19:00 +20°C° 0.7 mm 2 m/s 743 mmHg 91%
20:00 +19°C° 0.7 mm 2 m/s 743 mmHg 94%
21:00 +18°C° 0.1 mm 2 m/s 743 mmHg 94%
22:00 +18°C° 0.1 mm 2 m/s 743 mmHg 94%
23:00 +17°C° 0.1 mm 2 m/s 742 mmHg 95%
Voir plus